Home > Weather > Villavicencio > Past weeks

Flag for Colombia Weather for the Past 2 Weeks in Villavicencio, Colombia

Now
63 °F

Partly sunny.


Feels Like: 63 °F
Forecast: N/A
Wind: 12 mph from Southeast

Location: Bogota / Eldorado

Current Time: Feb 8, 2016 at 6:18:10 PM

Latest Report: Feb 8, 2016 at 5:00 PM


Visibility: N/A

Pressure: 30.28 "Hg

Humidity: 56%

Dew point: 46 °F

Location of VillavicencioLocation

Historic Weather in Villavicencio — Graph

°F

Villavicencio Temperature Yesterday

Maximum temperature yesterday: 68 °F (at 1:00 PM)
Minimum temperature yesterday: 48 °F (at 4:00 AM)
Average temperature yesterday: 59 °F

High & Low Weather Summary for the Past Weeks

 TemperatureHumidityPressure
High75 °F (Jan 27, 2:00 PM)100% (Jan 25, 4:00 AM)30.43 "Hg (Jan 25, 4:00 AM)
Low37 °F (Jan 28, 6:00 AM)12% (Jan 27, 1:00 PM)30.22 "Hg (Feb 2, 4:00 PM)
Average58 °F72%30.32 "Hg
* Reported Jan 24 4:00 PM — Feb 8 4:00 PM, Villavicencio, Weather by CustomWeather, © 2016

Note: Actual official high and low records may vary slightly from our data, if they occured in-between our weather recording intervals... More about our weather records

Advertising

Villavicencio Weather History for the Previous 24 Hours

 ConditionsComfort  
Time TempWeatherWind HumidityBarometerVisibility
4:00 PM
Mon, Feb 8
64 °FPartly sunny.12 mph52%30.28 "HgN/A
3:00 PM64 °FPartly sunny.12 mph52%30.29 "HgN/A
2:00 PM64 °FPartly sunny.14 mph52%30.31 "HgN/A
1:00 PM66 °FPartly sunny.12 mph46%30.33 "HgN/A
12:00 PM64 °FScattered clouds.9 mph52%30.36 "HgN/A
11:00 AM63 °FScattered showers. Scattered clouds.15 mph56%30.38 "HgN/A
10:00 AM61 °FScattered showers. Partly sunny.10 mph68%30.38 "HgN/A
9:00 AM61 °FScattered showers. Partly sunny.7 mph68%30.38 "HgN/A
8:00 AM57 °FScattered showers. Broken clouds.6 mph82%30.35 "HgN/A
7:16 AM55 °FDrizzle. Broken clouds.7 mph88%30.34 "HgN/A
7:00 AM55 °FScattered showers. Scattered clouds.5 mph88%30.33 "HgN/A
6:00 AM54 °FPassing clouds.7 mph88%30.31 "HgN/A
5:00 AM55 °FPassing clouds.7 mph82%30.30 "HgN/A
4:00 AM55 °FPassing clouds.5 mph82%30.29 "HgN/A
3:00 AM55 °FPassing clouds.2 mph82%30.29 "HgN/A
2:00 AM55 °FThunderstorms. Overcast.2 mph82%30.30 "HgN/A
1:00 AM55 °FPassing clouds.2 mph77%30.33 "HgN/A
12:00 AM57 °FPassing clouds.2 mph72%30.35 "HgN/A
11:00 PM
Sun, Feb 7
59 °FPassing clouds.5 mph68%30.35 "HgN/A
10:00 PM61 °FPassing clouds.7 mph63%30.37 "HgN/A
9:00 PM61 °FPassing clouds.6 mph63%30.35 "HgN/A
8:00 PM61 °FPassing clouds.7 mph59%30.32 "HgN/A
7:00 PM63 °FPassing clouds.8 mph59%30.30 "HgN/A
6:00 PM64 °FScattered showers. Scattered clouds.9 mph56%30.26 "HgN/A
Weather by CustomWeather, © 2016

See weather overviewHow to use our weather pages